Location: Bonneuil
(46.1010°N, 2.9693°E)
Time: 03:21:35
(UTC+00:00)

ATLAS CENTAUR R/B - Pass Details

Date: 09 April 2020
Orbit: 466 x 681 km, 64.7° (Epoch: 26 May)

Event Time Altitude Azimuth Distance (km) Brightness Sun altitude
Rises 20:15:50 0° 331° (NNW) 2,691 5.9 -18.0°
Reaches altitude 10° 20:18:40 10° 351° (N) 1,754 4.5 -18.4°
Maximum altitude 20:21:23 18° 36° (NE) 1,301 3.2 -18.8°
Enters shadow 20:22:10 17° 51° (NE) 1,334 3.1 -18.9°
